Weather History for KODO - November, 2012

Change the Weather History Date:

Friday, November 9, 2012

  Actual Average (KMAF) Record (KMAF)
Temperature  
Mean Temperature 70 °F 56 °F  
Max Temperature 81 °F 69 °F 86 °F (1942)
Min Temperature 59 °F 42 °F 27 °F (1948)
Degree Days  
Heating Degree Days 0 10  
Month to date heating degree days 74  
Since 1 July heating degree days 183  
Cooling Degree Days 5    
Growing Degree Days 20 (Base 50)    
Moisture  
Dew Point 50 °F    
Average Humidity 55    
Maximum Humidity 81    
Minimum Humidity 24    
Precipitation  
Precipitation 0.00 in 0.02 in 0.18 in (1952)
Month to date precipitation 0.23  
Year to date precipitation 13.54  
Snow  
Snow 0.00 in - - ()
Month to date snowfall  
Since 1 July snowfall  
Since 1 September snowfall  
Snow Depth -    
Sea Level Pressure  
Sea Level Pressure 29.83 in    
Wind  
Wind Speed 12 mph (South)    
Max Wind Speed 17 mph    
Max Gust Speed 25 mph    
Visibility 10 miles    
Events      
T = Trace of Precipitation, MM = Missing Value Source: NWS Daily Summary

Daily Weather History Graph

Daily Weather History Graph

Search for Another Location

Airport or City:

Trip Planner

Search our weather history database for the weather conditions in past years. The results will help you decide how hot, cold, wet, or windy it might be!

Date:

Astronomy

Nov. 09, 2012 Rise Set
Actual Time 7:13 AM CST 5:53 PM CST
Civil Twilight 6:47 AM CST 6:18 PM CST
Nautical Twilight 6:18 AM CST 6:48 PM CST
Astronomical Twilight 5:49 AM CST 7:16 PM CST
Moon 2:30 AM CST (11/9) 2:53 PM CST (11/9)
Length of Visible Light 11h 31m
Length of Day
10h 39m
Waning Crescent, 23% of the Moon is Illuminated
Nov 9
Waning Crescent
Nov 13
New
Nov 20
First Quarter
Nov 28
Full
Dec 6
Last Quarter

Hourly Weather History & Observations

Time (CST) Temp. Dew Point Humidity Pressure Visibility Wind Dir Wind Speed Gust Speed Precip Events Conditions
12:53 AM 66.0 °F 53.1 °F 63% 29.85 in 10.0 mi South 12.7 mph - N/A   Clear
1:53 AM 64.9 °F 53.1 °F 65% 29.84 in 10.0 mi South 12.7 mph - N/A   Clear
2:53 AM 63.0 °F 53.1 °F 70% 29.83 in 10.0 mi South 8.1 mph - N/A   Clear
3:53 AM 63.0 °F 52.0 °F 67% 29.84 in 10.0 mi South 13.8 mph - N/A   Clear
4:53 AM 62.1 °F 53.1 °F 72% 29.85 in 10.0 mi South 13.8 mph - N/A   Clear
5:53 AM 61.0 °F 53.1 °F 75% 29.86 in 10.0 mi South 10.4 mph - N/A   Clear
6:53 AM 60.1 °F 53.1 °F 78% 29.87 in 10.0 mi South 11.5 mph - N/A   Clear
7:53 AM 59.0 °F 53.1 °F 81% 29.88 in 10.0 mi South 9.2 mph - N/A   Clear
8:53 AM 63.0 °F 53.1 °F 70% 29.90 in 10.0 mi SSW 9.2 mph - N/A   Clear
9:53 AM 68.0 °F 50.0 °F 52% 29.91 in 10.0 mi SSW 10.4 mph - N/A   Clear
10:53 AM 73.0 °F 46.9 °F 39% 29.90 in 10.0 mi SSW 10.4 mph - N/A   Clear
11:53 AM 77.0 °F 43.0 °F 30% 29.87 in 10.0 mi WSW 12.7 mph - N/A   Clear
12:53 PM 79.0 °F 43.0 °F 28% 29.83 in 10.0 mi SSW 13.8 mph 18.4 mph N/A   Clear
1:53 PM 79.0 °F 42.1 °F 27% 29.81 in 10.0 mi SSW 10.4 mph 20.7 mph N/A   Clear
2:53 PM 81.0 °F 41.0 °F 24% 29.78 in 10.0 mi SW 11.5 mph - N/A   Clear
3:53 PM 80.1 °F 44.1 °F 28% 29.78 in 10.0 mi South 13.8 mph - N/A   Clear
4:53 PM 79.0 °F 44.1 °F 29% 29.78 in 10.0 mi South 10.4 mph - N/A   Clear
5:53 PM 75.9 °F 46.9 °F 36% 29.78 in 10.0 mi SSE 11.5 mph - N/A   Clear
6:53 PM 72.0 °F 50.0 °F 46% 29.81 in 10.0 mi South 13.8 mph - N/A   Partly Cloudy
7:53 PM 70.0 °F 54.0 °F 57% 29.81 in 10.0 mi SSE 17.3 mph 25.3 mph N/A   Mostly Cloudy
8:53 PM 66.9 °F 55.0 °F 66% 29.82 in 10.0 mi SSE 16.1 mph - N/A   Scattered Clouds
9:53 PM 66.0 °F 55.9 °F 70% 29.82 in 10.0 mi SSE 13.8 mph - N/A   Clear
10:53 PM 64.9 °F 55.9 °F 73% 29.81 in 10.0 mi SSE 13.8 mph - N/A   Clear
11:53 PM 64.9 °F 54.0 °F 68% 29.79 in 10.0 mi South 15.0 mph - N/A   Clear